GW1838 Weather Reports


time (UTC)temp
F
wind
direction
speed
knots
gust
knots
rain 1hr
in
rain 24hr
in
rain mn
in
humidity
%
barometer
mb
20260502203306 54 119 1.7 2.6 0.00 0.00 0.00 79 1009.2
20260502202806 54 114 0.9 2.6 0.00 0.00 0.00 79 1009.2
20260502202306 54 168 2.6 5.2 0.00 0.00 0.00 78 1009.2
20260502201806 55 157 2.6 4.3 0.00 0.00 0.00 78 1009.4
20260502200806 55 144 1.7 2.6 0.00 0.00 0.00 78 1009.4
20260502200306 55 114 1.7 4.3 0.00 0.00 0.00 78 1009.5
20260502193806 57 141 1.7 4.3 0.00 0.00 0.00 74 1009.6
20260502193306 57 174 0.9 2.6 0.00 0.00 0.00 75 1009.7
20260502191305 57 142 0.9 2.6 0.00 0.00 0.00 77 1010.0
20260502184807 55 147 3.5 5.2 0.00 0.00 0.00 79 1010.4
20260502183306 56 161 1.7 2.6 0.00 0.00 0.00 77 1010.5
20260502181806 56 137 1.7 2.6 0.00 0.00 0.00 77 1010.5
20260502170306 53 166 0.9 2.6 0.00 0.00 0.00 81 1010.7
20260502164305 53 166 1.7 2.6 0.00 0.00 0.00 82 1011.0
20260502163806 53 166 1.7 2.6 0.00 0.00 0.00 82 1011.1
20260502163306 53 166 1.7 2.6 0.00 0.00 0.00 82 1011.2
20260502162806 53 166 1.7 2.6 0.00 0.00 0.00 81 1011.2
20260502161806 53 166 0.9 2.6 0.00 0.00 0.00 81 1011.5
20260502160306 54 166 1.7 2.6 0.00 0.00 0.00 81 1011.4
20260502152305 53 167 0.9 2.6 0.00 0.00 0.00 84 1011.2
20260502151806 53 166 1.7 2.6 0.00 0.00 0.00 85 1011.1
20260502151306 53 161 1.7 2.6 0.00 0.00 0.00 85 1011.1
20260502150806 53 154 1.7 2.6 0.00 0.00 0.00 85 1011.2
20260502150306 53 158 1.7 2.6 0.00 0.00 0.00 85 1011.2
20260502130306 55 336 3.5 6.1 0.00 0.00 0.00 77 1011.6
20260502123305 53 297 1.7 2.6 0.00 0.00 0.00 81 1011.7
20260502121805 53 266 2.6 6.1 0.00 0.00 0.00 82 1011.4
20260502121307 52 259 2.6 6.1 0.00 0.00 0.00 83 1011.4
20260502120806 52 278 4.3 8.7 0.00 0.00 0.00 83 1011.5
20260502120306 52 270 3.5 6.1 0.00 0.00 0.00 83 1011.5
20260502115806 52 260 3.5 7.0 0.00 0.00 0.00 84 1011.5
20260502115306 51 255 4.3 6.1 0.00 0.00 0.00 84 1011.5
20260502113305 51 253 4.3 7.8 0.00 0.00 0.00 84 1011.5
20260502112805 52 252 4.3 6.1 0.00 0.00 0.00 84 1011.6
20260502112306 52 254 4.3 7.8 0.00 0.00 0.00 84 1011.5
20260502110805 52 249 4.3 7.0 0.00 0.00 0.00 83 1011.4
20260502110306 52 243 4.3 8.7 0.00 0.00 0.00 84 1011.4
20260502105306 52 246 3.5 7.8 0.00 0.00 0.00 84 1011.2
20260502104806 51 221 2.6 4.3 0.00 0.00 0.00 84 1011.1
20260502104305 51 221 2.6 5.2 0.00 0.00 0.00 85 1011.0
20260502103306 51 250 4.3 5.2 0.00 0.00 0.00 85 1011.0
20260502102805 51 230 2.6 6.1 0.00 0.00 0.00 85 1010.9
20260502102306 51 235 4.3 6.1 0.00 0.00 0.00 85 1011.0
20260502101306 51 247 4.3 6.1 0.00 0.00 0.00 85 1011.1
20260502100806 51 233 4.3 7.0 0.00 0.00 0.00 85 1011.1
20260502100306 51 243 2.6 5.2 0.00 0.00 0.00 86 1011.1
20260502091306 52 254 7.0 10.4 0.00 0.00 0.00 84 1011.1
20260502090805 52 245 6.1 10.4 0.00 0.00 0.00 84 1011.0
20260502090306 52 244 6.1 10.4 0.00 0.00 0.00 85 1010.9
20260502070806 51 200 6.1 12.2 0.00 0.00 0.00 85 1011.2
20260502065805 51 208 7.8 15.6 0.00 0.00 0.00 85 1011.3
20260502064305 51 201 6.1 10.4 0.00 0.00 0.00 84 1011.2
20260502063806 51 209 4.3 10.4 0.00 0.00 0.00 84 1011.3
20260502062805 51 208 7.8 11.3 0.00 0.00 0.00 83 1011.4
20260502061806 51 208 6.1 11.3 0.00 0.00 0.00 83 1011.4
20260502061306 51 206 7.0 12.2 0.00 0.00 0.00 82 1011.5
20260502060805 51 203 6.1 13.0 0.00 0.00 0.00 81 1011.8
20260502055306 51 209 6.1 14.8 0.00 0.00 0.00 83 1012.0
20260502052805 51 205 7.8 14.8 0.00 0.00 0.00 80 1012.2
20260502051805 51 212 10.4 17.4 0.00 0.00 0.00 80 1012.1
20260502051307 51 219 7.8 13.9 0.00 0.00 0.00 81 1012.1
20260502050805 51 211 7.8 13.9 0.00 0.00 0.00 81 1012.1
20260502050305 51 210 7.8 11.3 0.00 0.00 0.00 82 1012.2
20260502045805 51 207 7.8 14.8 0.00 0.00 0.00 82 1012.2
20260502044805 51 208 8.7 13.0 0.00 0.00 0.00 83 1012.0
20260502044306 51 210 7.8 13.9 0.00 0.00 0.00 83 1012.1
20260502043805 51 209 8.7 12.2 0.00 0.00 0.00 83 1012.1
20260502042306 50 196 8.7 13.9 0.00 0.00 0.00 84 1011.8
20260502041807 50 206 7.8 14.8 0.00 0.00 0.00 83 1012.0
20260502040835 50 200 7.0 13.9 0.00 0.00 0.00 84 1012.1
20260502035306 50 208 8.7 13.0 0.00 0.00 0.00 84 1012.0
20260502034305 50 210 6.1 10.4 0.00 0.00 0.00 83 1011.7
20260502033805 51 206 7.8 12.2 0.00 0.00 0.00 83 1011.7
20260502033306 50 203 7.8 13.9 0.00 0.00 0.00 83 1011.8
20260502032805 51 205 7.0 10.4 0.00 0.00 0.00 83 1011.9
20260502031805 51 200 7.0 12.2 0.00 0.00 0.00 83 1012.2
20260502031306 51 202 6.1 13.0 0.00 0.00 0.00 83 1012.2
20260502030805 51 202 6.1 12.2 0.00 0.00 0.00 82 1012.2
20260502030305 51 216 7.0 12.2 0.00 0.00 0.00 82 1012.4
20260502025306 51 208 8.7 13.0 0.00 0.00 0.00 81 1012.3
20260502024807 51 196 5.2 12.2 0.00 0.00 0.00 80 1012.6
20260502023805 51 201 7.8 12.2 0.00 0.00 0.00 79 1012.7
20260502021306 51 209 6.1 10.4 0.00 0.02 0.00 79 1012.8
20260502020305 51 222 7.8 12.2 0.00 0.04 0.00 79 1012.6
20260502015806 51 208 8.7 14.8 0.00 0.06 0.00 79 1012.4
20260502015305 51 209 8.7 14.8 0.00 0.06 0.00 79 1012.4
20260502014306 51 213 6.1 13.9 0.00 0.06 0.00 78 1012.1
20260502013306 51 203 7.8 15.6 0.00 0.06 0.00 77 1012.3
20260502012306 52 210 7.0 15.6 0.00 0.06 0.00 75 1012.2
20260502011305 52 206 7.8 13.0 0.00 0.06 0.00 73 1012.2
20260502010805 52 203 7.8 14.8 0.00 0.06 0.00 72 1012.1
20260502010305 52 198 9.6 13.0 0.00 0.06 0.00 74 1012.0
20260502005805 52 213 7.8 11.3 0.00 0.06 0.00 74 1011.9
20260502005306 52 203 6.1 13.0 0.00 0.06 0.00 74 1011.8
20260502003805 52 200 8.7 15.6 0.00 0.06 0.00 76 1011.7
20260502002805 52 217 7.0 13.0 0.00 0.06 0.00 73 1011.7
20260502000806 52 208 10.4 19.1 0.00 0.06 0.00 74 1011.6
20260501235807 52 210 8.7 17.4 0.00 0.06 0.00 73 1011.5
20260501233304 53 214 10.4 17.4 0.00 0.06 0.00 73 1011.2
20260501231805 53 207 7.8 19.1 0.00 0.06 0.00 74 1011.0
20260501230305 53 212 7.0 13.0 0.00 0.06 0.00 76 1011.1
20260501225806 53 197 6.1 15.6 0.00 0.06 0.00 76 1011.0
20260501224305 53 206 8.7 13.0 0.00 0.06 0.00 76 1011.0
20260501223805 53 207 10.4 17.4 0.00 0.06 0.00 76 1011.0
20260501222805 53 204 10.4 13.9 0.00 0.06 0.00 78 1010.9
20260501221305 54 190 10.4 14.8 0.00 0.06 0.00 76 1010.8
20260501220805 54 200 8.7 15.6 0.00 0.06 0.00 76 1010.8
20260501220304 54 196 9.6 15.6 0.00 0.06 0.00 77 1010.9
20260501215306 53 190 7.8 15.6 0.00 0.06 0.00 78 1010.8
20260501213305 54 197 7.8 13.0 0.00 0.06 0.00 75 1010.8
20260501212306 55 188 8.7 17.4 0.00 0.06 0.00 72 1010.9
20260501211305 55 190 10.4 17.4 0.00 0.06 0.00 71 1010.7
20260501205805 54 187 7.8 14.8 0.00 0.06 0.00 77 1010.7
20260501204804 54 185 10.4 17.4 0.00 0.06 0.00 77 1010.8
20260501203805 54 180 10.4 15.6 0.00 0.06 0.00 77 1010.8